Tracking 28052 objects as of 21-Sep-2023
HD Live streaming from Space Station
objects crossing your sky now

STARLINK-2484

Track STARLINK-2484 now!
10-day predictions
STARLINK-2484 is classified as:


NORAD ID: 48141
Int'l Code: 2021-027BB
Perigee: 553.4 km
Apogee: 555.5 km
Inclination: 53.1 °
Period: 95.6 minutes
Semi major axis: 6925 km
RCS: Unknown
Launch date: April 7, 2021
Source: United States (US)
Launch site: AIR FORCE EASTERN TEST RANGE (AFETR)
Your satellite tracking list
Your tracking list is empty




NASA's NSSDC Master Catalog

Two Line Element Set (TLE):
1 48141U 21027BB  23264.36959441  .00002585  00000-0  19254-3 0  9992
2 48141  53.0537 253.3106 0001564 103.6551 256.4612 15.06368947136320
Source of the keplerian elements: AFSPC